Year,Month,Day,Hour,Minute,Value (Times are PST for temperature in C)
2015,09,22,00,00,10.70
2015,09,22,00,01,10.70
2015,09,22,00,02,10.70
2015,09,22,00,03,10.70
2015,09,22,00,04,10.70
2015,09,22,00,05,10.70
2015,09,22,00,06,10.70
2015,09,22,00,07,10.70
2015,09,22,00,08,10.70
2015,09,22,00,09,10.70
2015,09,22,00,10,10.70
2015,09,22,00,11,10.70
2015,09,22,00,12,10.70
2015,09,22,00,13,10.70
2015,09,22,00,14,10.70
2015,09,22,00,15,10.70
2015,09,22,00,16,10.70
2015,09,22,00,17,10.70
2015,09,22,00,18,10.70
2015,09,22,00,19,10.70
2015,09,22,00,20,10.70
2015,09,22,00,21,10.70
2015,09,22,00,22,10.70
2015,09,22,00,23,10.70
2015,09,22,00,24,10.70
2015,09,22,00,25,10.70
2015,09,22,00,26,10.70
2015,09,22,00,27,10.70
2015,09,22,00,28,10.60
2015,09,22,00,29,10.70
2015,09,22,00,30,10.60
2015,09,22,00,31,10.60
2015,09,22,00,32,10.60
2015,09,22,00,33,10.60
2015,09,22,00,34,10.60
2015,09,22,00,35,10.60
2015,09,22,00,36,10.60
2015,09,22,00,37,10.60
2015,09,22,00,38,10.60
2015,09,22,00,39,10.60
2015,09,22,00,40,10.60
2015,09,22,00,41,10.60
2015,09,22,00,42,10.60
2015,09,22,00,43,10.60
2015,09,22,00,44,10.60
2015,09,22,00,45,10.60
2015,09,22,00,46,10.60
2015,09,22,00,47,10.60
2015,09,22,00,48,10.40
2015,09,22,00,49,10.40
2015,09,22,00,50,10.40
2015,09,22,00,51,10.40
2015,09,22,00,52,10.40
2015,09,22,00,53,10.40
2015,09,22,00,54,10.40
2015,09,22,00,55,10.40
2015,09,22,00,56,10.40
2015,09,22,00,57,10.40
2015,09,22,00,58,10.40
2015,09,22,00,59,10.40
2015,09,22,01,00,10.40
2015,09,22,01,01,10.40
2015,09,22,01,02,10.40
2015,09,22,01,03,10.40
2015,09,22,01,04,10.40
2015,09,22,01,05,10.40
2015,09,22,01,06,10.40
2015,09,22,01,07,10.40
2015,09,22,01,08,10.40
2015,09,22,01,09,10.40
2015,09,22,01,10,10.40
2015,09,22,01,11,10.40
2015,09,22,01,12,10.40
2015,09,22,01,13,10.40
2015,09,22,01,14,10.40
2015,09,22,01,15,10.40
2015,09,22,01,16,10.40
2015,09,22,01,17,10.40
2015,09,22,01,18,10.40
2015,09,22,01,19,10.40
2015,09,22,01,20,10.40
2015,09,22,01,21,10.40
2015,09,22,01,22,10.40
2015,09,22,01,23,10.30
2015,09,22,01,24,10.30
2015,09,22,01,25,10.30
2015,09,22,01,26,10.30
2015,09,22,01,27,10.30
2015,09,22,01,28,10.30
2015,09,22,01,29,10.30
2015,09,22,01,30,10.30
2015,09,22,01,31,10.30
2015,09,22,01,32,10.30
2015,09,22,01,33,10.20
2015,09,22,01,34,10.20
2015,09,22,01,35,10.20
2015,09,22,01,36,10.20
2015,09,22,01,37,10.20
2015,09,22,01,38,10.20
2015,09,22,01,39,10.10
2015,09,22,01,40,10.10
2015,09,22,01,41,10.10
2015,09,22,01,42,10.10
2015,09,22,01,43,10.10
2015,09,22,01,44,10.10
2015,09,22,01,45,10.10
2015,09,22,01,46,10.00
2015,09,22,01,47,9.90
2015,09,22,01,48,9.90
2015,09,22,01,49,9.90
2015,09,22,01,50,9.90
2015,09,22,01,51,9.90
2015,09,22,01,52,9.90
2015,09,22,01,53,9.90
2015,09,22,01,54,9.90
2015,09,22,01,55,9.90
2015,09,22,01,56,9.80
2015,09,22,01,57,9.80
2015,09,22,01,58,9.80
2015,09,22,01,59,9.70
2015,09,22,02,00,9.70
2015,09,22,02,01,9.70
2015,09,22,02,02,9.70
2015,09,22,02,03,9.70
2015,09,22,02,04,9.70
2015,09,22,02,05,9.70
2015,09,22,02,06,9.70
2015,09,22,02,07,9.60
2015,09,22,02,08,9.60
2015,09,22,02,09,9.60
2015,09,22,02,10,9.50
2015,09,22,02,11,9.50
2015,09,22,02,12,9.50
2015,09,22,02,13,9.40
2015,09,22,02,14,9.40
2015,09,22,02,15,9.40
2015,09,22,02,16,9.30
2015,09,22,02,17,9.30
2015,09,22,02,18,9.30
2015,09,22,02,19,9.20
2015,09,22,02,20,9.20
2015,09,22,02,21,9.20
2015,09,22,02,22,9.20
2015,09,22,02,23,9.20
2015,09,22,02,24,9.20
2015,09,22,02,25,9.20
2015,09,22,02,26,9.10
2015,09,22,02,27,9.10
2015,09,22,02,28,9.10
2015,09,22,02,29,9.10
2015,09,22,02,30,9.10
2015,09,22,02,31,9.10
2015,09,22,02,32,9.10
2015,09,22,02,33,9.10
2015,09,22,02,34,9.20
2015,09,22,02,35,9.20
2015,09,22,02,36,9.20
2015,09,22,02,37,9.20
2015,09,22,02,38,9.20
2015,09,22,02,39,9.20
2015,09,22,02,40,9.20
2015,09,22,02,41,9.10
2015,09,22,02,42,9.10
2015,09,22,02,43,9.10
2015,09,22,02,44,9.10
2015,09,22,02,45,9.10
2015,09,22,02,46,9.10
2015,09,22,02,47,9.10
2015,09,22,02,48,9.10
2015,09,22,02,49,9.10
2015,09,22,02,50,9.10
2015,09,22,02,51,9.10
2015,09,22,02,52,9.00
2015,09,22,02,53,9.00
2015,09,22,02,54,9.00
2015,09,22,02,55,8.90
2015,09,22,02,56,8.90
2015,09,22,02,57,8.80
2015,09,22,02,58,8.80
2015,09,22,02,59,8.70
2015,09,22,03,00,8.70
2015,09,22,03,01,8.70
2015,09,22,03,02,8.70
2015,09,22,03,03,8.60
2015,09,22,03,04,8.60
2015,09,22,03,05,8.60
2015,09,22,03,06,8.50
2015,09,22,03,07,8.50
2015,09,22,03,08,8.50
2015,09,22,03,09,8.40
2015,09,22,03,10,8.40
2015,09,22,03,11,8.40
2015,09,22,03,12,8.40
2015,09,22,03,13,8.30
2015,09,22,03,14,8.30
2015,09,22,03,15,8.30
2015,09,22,03,16,8.30
2015,09,22,03,17,8.30
2015,09,22,03,18,8.20
2015,09,22,03,19,8.20
2015,09,22,03,20,8.20
2015,09,22,03,21,8.20
2015,09,22,03,22,8.20
2015,09,22,03,23,8.20
2015,09,22,03,24,8.20
2015,09,22,03,25,8.20
2015,09,22,03,26,8.10
2015,09,22,03,27,8.10
2015,09,22,03,28,8.10
2015,09,22,03,29,8.10
2015,09,22,03,30,8.00
2015,09,22,03,31,8.00
2015,09,22,03,32,8.00
2015,09,22,03,33,8.00
2015,09,22,03,34,8.00
2015,09,22,03,35,8.00
2015,09,22,03,36,8.00
2015,09,22,03,37,8.00
2015,09,22,03,38,8.00
2015,09,22,03,39,8.00
2015,09,22,03,40,8.00
2015,09,22,03,41,8.00
2015,09,22,03,42,7.90
2015,09,22,03,43,7.90
2015,09,22,03,44,7.90
2015,09,22,03,45,7.90
2015,09,22,03,46,7.90
2015,09,22,03,47,7.90
2015,09,22,03,48,7.90
2015,09,22,03,49,7.90
2015,09,22,03,50,7.90
2015,09,22,03,51,7.80
2015,09,22,03,52,7.80
2015,09,22,03,53,7.80
2015,09,22,03,54,7.80
2015,09,22,03,55,7.80
2015,09,22,03,56,7.80
2015,09,22,03,57,7.80
2015,09,22,03,58,7.80
2015,09,22,03,59,7.80
2015,09,22,04,00,7.70
2015,09,22,04,01,7.70
2015,09,22,04,02,7.70
2015,09,22,04,03,7.60
2015,09,22,04,04,7.60
2015,09,22,04,05,7.60
2015,09,22,04,06,7.50
2015,09,22,04,07,7.50
2015,09,22,04,08,7.50
2015,09,22,04,09,7.50
2015,09,22,04,10,7.50
2015,09,22,04,11,7.50
2015,09,22,04,12,7.40
2015,09,22,04,13,7.40
2015,09,22,04,14,7.40
2015,09,22,04,15,7.40
2015,09,22,04,16,7.40
2015,09,22,04,17,7.40
2015,09,22,04,18,7.30
2015,09,22,04,19,7.30
2015,09,22,04,20,7.30
2015,09,22,04,21,7.30
2015,09,22,04,22,7.30
2015,09,22,04,23,7.30
2015,09,22,04,24,7.30
2015,09,22,04,25,7.30
2015,09,22,04,26,7.30
2015,09,22,04,27,7.30
2015,09,22,04,28,7.30
2015,09,22,04,29,7.20
2015,09,22,04,30,7.20
2015,09,22,04,31,7.20
2015,09,22,04,32,7.20
2015,09,22,04,33,7.20
2015,09,22,04,34,7.20
2015,09,22,04,35,7.20
2015,09,22,04,36,7.10
2015,09,22,04,37,7.10
2015,09,22,04,38,7.10
2015,09,22,04,39,7.10
2015,09,22,04,40,7.00
2015,09,22,04,41,7.00
2015,09,22,04,42,7.00
2015,09,22,04,43,7.00
2015,09,22,04,44,7.00
2015,09,22,04,45,7.00
2015,09,22,04,46,7.00
2015,09,22,04,47,7.00
2015,09,22,04,48,7.00
2015,09,22,04,49,7.00
2015,09,22,04,50,6.90
2015,09,22,04,51,6.90
2015,09,22,04,52,6.90
2015,09,22,04,53,6.90
2015,09,22,04,54,6.90
2015,09,22,04,55,6.90
2015,09,22,04,56,6.80
2015,09,22,04,57,6.80
2015,09,22,04,58,6.80
2015,09,22,04,59,6.80
2015,09,22,05,00,6.80
2015,09,22,05,01,6.80
2015,09,22,05,02,6.80
2015,09,22,05,03,6.80
2015,09,22,05,04,6.80
2015,09,22,05,05,6.80
2015,09,22,05,06,6.70
2015,09,22,05,07,6.70
2015,09,22,05,08,6.70
2015,09,22,05,09,6.70
2015,09,22,05,10,6.70
2015,09,22,05,11,6.70
2015,09,22,05,12,6.70
2015,09,22,05,13,6.70
2015,09,22,05,14,6.70
2015,09,22,05,15,6.70
2015,09,22,05,16,6.70
2015,09,22,05,17,6.70
2015,09,22,05,18,6.60
2015,09,22,05,19,6.70
2015,09,22,05,20,6.70
2015,09,22,05,21,6.70
2015,09,22,05,22,6.70
2015,09,22,05,23,6.70
2015,09,22,05,24,6.70
2015,09,22,05,25,6.60
2015,09,22,05,26,6.60
2015,09,22,05,27,6.60
2015,09,22,05,28,6.60
2015,09,22,05,29,6.60
2015,09,22,05,30,6.60
2015,09,22,05,31,6.40
2015,09,22,05,32,6.40
2015,09,22,05,33,6.40
2015,09,22,05,34,6.40
2015,09,22,05,35,6.40
2015,09,22,05,36,6.40
2015,09,22,05,37,6.40
2015,09,22,05,38,6.40
2015,09,22,05,39,6.40
2015,09,22,05,40,6.40
2015,09,22,05,41,6.40
2015,09,22,05,42,6.30
2015,09,22,05,43,6.30
2015,09,22,05,44,6.30
2015,09,22,05,45,6.30
2015,09,22,05,46,6.30
2015,09,22,05,47,6.30
2015,09,22,05,48,6.30
2015,09,22,05,49,6.30
2015,09,22,05,50,6.20
2015,09,22,05,51,6.20
2015,09,22,05,52,6.20
2015,09,22,05,53,6.20
2015,09,22,05,54,6.20
2015,09,22,05,55,6.20
2015,09,22,05,56,6.20
2015,09,22,05,57,6.20
2015,09,22,05,58,6.20
2015,09,22,05,59,6.20
2015,09,22,06,00,6.20
2015,09,22,06,01,6.20
2015,09,22,06,02,6.20
2015,09,22,06,03,6.20
2015,09,22,06,04,6.20
2015,09,22,06,05,6.20
2015,09,22,06,06,6.20
2015,09,22,06,07,6.20
2015,09,22,06,08,6.20
2015,09,22,06,09,6.20
2015,09,22,06,10,6.20
2015,09,22,06,11,6.20
2015,09,22,06,12,6.20
2015,09,22,06,13,6.20
2015,09,22,06,14,6.20
2015,09,22,06,15,6.10
2015,09,22,06,16,6.10
2015,09,22,06,17,6.10
2015,09,22,06,18,6.00
2015,09,22,06,19,6.00
2015,09,22,06,20,6.00
2015,09,22,06,21,6.00
2015,09,22,06,22,6.00
2015,09,22,06,23,6.00
2015,09,22,06,24,6.00
2015,09,22,06,25,5.90
2015,09,22,06,26,5.90
2015,09,22,06,27,5.90
2015,09,22,06,28,5.90
2015,09,22,06,29,5.90
2015,09,22,06,30,5.90
2015,09,22,06,31,5.90
2015,09,22,06,32,5.90
2015,09,22,06,33,5.90
2015,09,22,06,34,5.90
2015,09,22,06,35,5.90
2015,09,22,06,36,5.90
2015,09,22,06,37,5.90
2015,09,22,06,38,5.90
2015,09,22,06,39,5.80
2015,09,22,06,40,5.80
2015,09,22,06,41,5.90
2015,09,22,06,42,5.90
2015,09,22,06,43,5.80
2015,09,22,06,44,5.80
2015,09,22,06,45,5.80
2015,09,22,06,46,5.80
2015,09,22,06,47,5.80
2015,09,22,06,48,5.80
2015,09,22,06,49,5.80
2015,09,22,06,50,5.80
2015,09,22,06,51,5.80
2015,09,22,06,52,5.90
2015,09,22,06,53,5.80
2015,09,22,06,54,5.90
2015,09,22,06,55,5.90
2015,09,22,06,56,5.90
2015,09,22,06,57,5.80
2015,09,22,06,58,5.80
2015,09,22,06,59,5.80
2015,09,22,07,00,5.80
2015,09,22,07,01,5.80
2015,09,22,07,02,5.80
2015,09,22,07,03,5.80
2015,09,22,07,04,5.80
2015,09,22,07,05,5.80
2015,09,22,07,06,5.80
2015,09,22,07,07,5.80
2015,09,22,07,08,5.80
2015,09,22,07,09,5.90
2015,09,22,07,10,5.90
2015,09,22,07,11,6.00
2015,09,22,07,12,6.00
2015,09,22,07,13,6.00
2015,09,22,07,14,6.00
2015,09,22,07,15,6.00
2015,09,22,07,16,6.10
2015,09,22,07,17,6.10
2015,09,22,07,18,6.10
2015,09,22,07,19,6.10
2015,09,22,07,20,6.10
2015,09,22,07,21,6.20
2015,09,22,07,22,6.20
2015,09,22,07,23,6.20
2015,09,22,07,24,6.20
2015,09,22,07,25,6.20
2015,09,22,07,26,6.20
2015,09,22,07,27,6.20
2015,09,22,07,28,6.10
2015,09,22,07,29,6.10
2015,09,22,07,30,6.20
2015,09,22,07,31,6.20
2015,09,22,07,32,6.20
2015,09,22,07,33,6.20
2015,09,22,07,34,6.20
2015,09,22,07,35,6.20
2015,09,22,07,36,6.20
2015,09,22,07,37,6.30
2015,09,22,07,38,6.30
2015,09,22,07,39,6.30
2015,09,22,07,40,6.40
2015,09,22,07,41,6.40
2015,09,22,07,42,6.40
2015,09,22,07,43,6.40
2015,09,22,07,44,6.40
2015,09,22,07,45,6.40
2015,09,22,07,46,6.40
2015,09,22,07,47,6.50
2015,09,22,07,48,6.60
2015,09,22,07,49,6.60
2015,09,22,07,50,6.60
2015,09,22,07,51,6.60
2015,09,22,07,52,6.60
2015,09,22,07,53,6.70
2015,09,22,07,54,6.70
2015,09,22,07,55,6.80
2015,09,22,07,56,6.80
2015,09,22,07,57,6.80
2015,09,22,07,58,6.90
2015,09,22,07,59,7.00
2015,09,22,08,00,7.00
2015,09,22,08,01,7.00
2015,09,22,08,02,7.10
2015,09,22,08,03,7.10
2015,09,22,08,04,7.20
2015,09,22,08,05,7.20
2015,09,22,08,06,7.30
2015,09,22,08,07,7.30
2015,09,22,08,08,7.30
2015,09,22,08,09,7.30
2015,09,22,08,10,7.40
2015,09,22,08,11,7.50
2015,09,22,08,12,7.50
2015,09,22,08,13,7.60
2015,09,22,08,14,7.60
2015,09,22,08,15,7.70
2015,09,22,08,16,7.80
2015,09,22,08,17,7.80
2015,09,22,08,18,7.90
2015,09,22,08,19,7.90
2015,09,22,08,20,8.00
2015,09,22,08,21,8.00
2015,09,22,08,22,8.10
2015,09,22,08,23,8.20
2015,09,22,08,24,8.20
2015,09,22,08,25,8.30
2015,09,22,08,26,8.40
2015,09,22,08,27,8.50
2015,09,22,08,28,8.50
2015,09,22,08,29,8.60
2015,09,22,08,30,8.70
2015,09,22,08,31,8.80
2015,09,22,08,32,8.90
2015,09,22,08,33,8.90
2015,09,22,08,34,9.00
2015,09,22,08,35,9.10
2015,09,22,08,36,9.20
2015,09,22,08,37,9.30
2015,09,22,08,38,9.40
2015,09,22,08,39,9.50
2015,09,22,08,40,9.50
2015,09,22,08,41,9.70
2015,09,22,08,42,9.70
2015,09,22,08,43,9.80
2015,09,22,08,44,9.90
2015,09,22,08,45,9.90
2015,09,22,08,46,10.10
2015,09,22,08,47,10.10
2015,09,22,08,48,10.20
2015,09,22,08,49,10.30
2015,09,22,08,50,10.40
2015,09,22,08,51,10.50
2015,09,22,08,52,10.60
2015,09,22,08,53,10.80
2015,09,22,08,54,10.90
2015,09,22,08,55,11.00
2015,09,22,08,56,11.10
2015,09,22,08,57,11.30
2015,09,22,08,58,11.30
2015,09,22,08,59,11.40
2015,09,22,09,00,11.40
2015,09,22,09,01,11.50
2015,09,22,09,02,11.60
2015,09,22,09,03,11.60
2015,09,22,09,04,11.60
2015,09,22,09,05,11.60
2015,09,22,09,06,11.60
2015,09,22,09,07,11.60
2015,09,22,09,08,11.60
2015,09,22,09,09,11.60
2015,09,22,09,10,11.70
2015,09,22,09,11,11.80
2015,09,22,09,12,11.80
2015,09,22,09,13,11.80
2015,09,22,09,14,11.80
2015,09,22,09,15,11.80
2015,09,22,09,16,11.80
2015,09,22,09,17,11.90
2015,09,22,09,18,11.90
2015,09,22,09,19,11.90
2015,09,22,09,20,11.80
2015,09,22,09,21,11.80
2015,09,22,09,22,11.80
2015,09,22,09,23,11.70
2015,09,22,09,24,11.60
2015,09,22,09,25,11.60
2015,09,22,09,26,11.60
2015,09,22,09,27,11.60
2015,09,22,09,28,11.60
2015,09,22,09,29,11.60
2015,09,22,09,30,11.60
2015,09,22,09,31,11.60
2015,09,22,09,32,11.60
2015,09,22,09,33,11.60
2015,09,22,09,34,11.60
2015,09,22,09,35,11.60
2015,09,22,09,36,11.60
2015,09,22,09,37,11.70
2015,09,22,09,38,11.70
2015,09,22,09,39,11.80
2015,09,22,09,40,11.80
2015,09,22,09,41,11.80
2015,09,22,09,42,11.90
2015,09,22,09,43,11.90
2015,09,22,09,44,11.90
2015,09,22,09,45,11.80
2015,09,22,09,46,11.80
2015,09,22,09,47,11.80
2015,09,22,09,48,11.80
2015,09,22,09,49,11.80
2015,09,22,09,50,11.80
2015,09,22,09,51,11.80
2015,09,22,09,52,11.70
2015,09,22,09,53,11.70
2015,09,22,09,54,11.70
2015,09,22,09,55,11.70
2015,09,22,09,56,11.80
2015,09,22,09,57,11.80
2015,09,22,09,58,11.90
2015,09,22,09,59,11.90
2015,09,22,10,00,12.00
2015,09,22,10,01,12.10
2015,09,22,10,02,12.20
2015,09,22,10,03,12.30
2015,09,22,10,04,12.30
2015,09,22,10,05,12.30
2015,09,22,10,06,12.40
2015,09,22,10,07,12.40
2015,09,22,10,08,12.50
2015,09,22,10,09,12.50
2015,09,22,10,10,12.50
2015,09,22,10,11,12.60
2015,09,22,10,12,12.70
2015,09,22,10,13,12.70
2015,09,22,10,14,12.70
2015,09,22,10,15,12.70
2015,09,22,10,16,12.80
2015,09,22,10,17,12.80
2015,09,22,10,18,12.80
2015,09,22,10,19,12.80
2015,09,22,10,20,12.80
2015,09,22,10,21,12.80
2015,09,22,10,22,12.80
2015,09,22,10,23,12.80
2015,09,22,10,24,12.80
2015,09,22,10,25,12.80
2015,09,22,10,26,12.80
2015,09,22,10,27,12.90
2015,09,22,10,28,12.90
2015,09,22,10,29,13.00
2015,09,22,10,30,13.00
2015,09,22,10,31,13.00
2015,09,22,10,32,13.10
2015,09,22,10,33,13.10
2015,09,22,10,34,13.20
2015,09,22,10,35,13.20
2015,09,22,10,36,13.20
2015,09,22,10,37,13.30
2015,09,22,10,38,13.30
2015,09,22,10,39,13.30
2015,09,22,10,40,13.30
2015,09,22,10,41,13.30
2015,09,22,10,42,13.30
2015,09,22,10,43,13.30
2015,09,22,10,44,13.30
2015,09,22,10,45,13.30
2015,09,22,10,46,13.20
2015,09,22,10,47,13.20
2015,09,22,10,48,13.20
2015,09,22,10,49,13.30
2015,09,22,10,50,13.30
2015,09,22,10,51,13.30
2015,09,22,10,52,13.20
2015,09,22,10,53,13.20
2015,09,22,10,54,13.10
2015,09,22,10,55,13.00
2015,09,22,10,56,13.00
2015,09,22,10,57,13.00
2015,09,22,10,58,13.00
2015,09,22,10,59,13.10
2015,09,22,11,00,13.10
2015,09,22,11,01,13.20
2015,09,22,11,02,13.20
2015,09,22,11,03,13.30
2015,09,22,11,04,13.30
2015,09,22,11,05,13.30
2015,09,22,11,06,13.30
2015,09,22,11,07,13.40
2015,09,22,11,08,13.40
2015,09,22,11,09,13.40
2015,09,22,11,10,13.50
2015,09,22,11,11,13.50
2015,09,22,11,12,13.50
2015,09,22,11,13,13.50
2015,09,22,11,14,13.40
2015,09,22,11,15,13.40
2015,09,22,11,16,13.40
2015,09,22,11,17,13.30
2015,09,22,11,18,13.40
2015,09,22,11,19,13.40
2015,09,22,11,20,13.40
2015,09,22,11,21,13.40
2015,09,22,11,22,13.40
2015,09,22,11,23,13.40
2015,09,22,11,24,13.30
2015,09,22,11,25,13.20
2015,09,22,11,26,13.10
2015,09,22,11,27,13.00
2015,09,22,11,28,13.00
2015,09,22,11,29,13.00
2015,09,22,11,30,12.90
2015,09,22,11,31,12.80
2015,09,22,11,32,12.80
2015,09,22,11,33,12.80
2015,09,22,11,34,12.80
2015,09,22,11,35,12.80
2015,09,22,11,36,12.80
2015,09,22,11,37,12.80
2015,09,22,11,38,12.80
2015,09,22,11,39,12.80
2015,09,22,11,40,12.80
2015,09,22,11,41,12.80
2015,09,22,11,42,12.70
2015,09,22,11,43,12.70
2015,09,22,11,44,12.60
2015,09,22,11,45,12.50
2015,09,22,11,46,12.40
2015,09,22,11,47,12.40
2015,09,22,11,48,12.30
2015,09,22,11,49,12.30
2015,09,22,11,50,12.20
2015,09,22,11,51,12.20
2015,09,22,11,52,12.20
2015,09,22,11,53,12.10
2015,09,22,11,54,12.00
2015,09,22,11,55,12.00
2015,09,22,11,56,12.00
2015,09,22,11,57,12.00
2015,09,22,11,58,11.90
2015,09,22,11,59,11.80
2015,09,22,12,00,11.80
2015,09,22,12,01,11.80
2015,09,22,12,02,11.90
2015,09,22,12,03,11.80
2015,09,22,12,04,11.80
2015,09,22,12,05,11.80
2015,09,22,12,06,11.80
2015,09,22,12,07,11.80
2015,09,22,12,08,11.80
2015,09,22,12,09,11.80
2015,09,22,12,10,11.80
2015,09,22,12,11,11.80
2015,09,22,12,12,11.80
2015,09,22,12,13,11.80
2015,09,22,12,14,11.80
2015,09,22,12,15,11.80
2015,09,22,12,16,11.80
2015,09,22,12,17,11.80
2015,09,22,12,18,11.80
2015,09,22,12,19,11.70
2015,09,22,12,20,11.80
2015,09,22,12,21,11.80
2015,09,22,12,22,11.80
2015,09,22,12,23,11.80
2015,09,22,12,24,11.80
2015,09,22,12,25,11.80
2015,09,22,12,26,11.80
2015,09,22,12,27,11.80
2015,09,22,12,28,11.90
2015,09,22,12,29,11.90
2015,09,22,12,30,11.90
2015,09,22,12,31,11.90
2015,09,22,12,32,11.80
2015,09,22,12,33,11.80
2015,09,22,12,34,11.80
2015,09,22,12,35,11.80
2015,09,22,12,36,11.80
2015,09,22,12,37,11.80
2015,09,22,12,38,11.80
2015,09,22,12,39,11.80
2015,09,22,12,40,11.80
2015,09,22,12,41,11.80
2015,09,22,12,42,11.70
2015,09,22,12,43,11.70
2015,09,22,12,44,11.70
2015,09,22,12,45,11.60
2015,09,22,12,46,11.60
2015,09,22,12,47,11.60
2015,09,22,12,48,11.60
2015,09,22,12,49,11.60
2015,09,22,12,50,11.70
2015,09,22,12,51,11.70
2015,09,22,12,52,11.80
2015,09,22,12,53,11.80
2015,09,22,12,54,11.80
2015,09,22,12,55,11.80
2015,09,22,12,56,11.90
2015,09,22,12,57,11.90
2015,09,22,12,58,12.00
2015,09,22,12,59,12.00
2015,09,22,13,00,12.00
2015,09,22,13,01,12.00
2015,09,22,13,02,12.10
2015,09,22,13,03,12.10
2015,09,22,13,04,12.10
2015,09,22,13,05,12.10
2015,09,22,13,06,12.10
2015,09,22,13,07,12.00
2015,09,22,13,08,12.00
2015,09,22,13,09,11.90
2015,09,22,13,10,11.90
2015,09,22,13,11,11.90
2015,09,22,13,12,11.90
2015,09,22,13,13,12.00
2015,09,22,13,14,12.00
2015,09,22,13,15,12.00
2015,09,22,13,16,12.00
2015,09,22,13,17,12.00
2015,09,22,13,18,12.00
2015,09,22,13,19,12.00
2015,09,22,13,20,12.10
2015,09,22,13,21,12.20
2015,09,22,13,22,12.30
2015,09,22,13,23,12.40
2015,09,22,13,24,12.40
2015,09,22,13,25,12.50
2015,09,22,13,26,12.50
2015,09,22,13,27,12.60
2015,09,22,13,28,12.70
2015,09,22,13,29,12.80
2015,09,22,13,30,12.80
2015,09,22,13,31,12.80
2015,09,22,13,32,12.80
2015,09,22,13,33,12.80
2015,09,22,13,34,12.80
2015,09,22,13,35,12.80
2015,09,22,13,36,12.70
2015,09,22,13,37,12.70
2015,09,22,13,38,12.70
2015,09,22,13,39,12.80
2015,09,22,13,40,12.70
2015,09,22,13,41,12.60
2015,09,22,13,42,12.50
2015,09,22,13,43,12.50
2015,09,22,13,44,12.50
2015,09,22,13,45,12.60
2015,09,22,13,46,12.50
2015,09,22,13,47,12.40
2015,09,22,13,48,12.30
2015,09,22,13,49,12.30
2015,09,22,13,50,12.20
2015,09,22,13,51,12.20
2015,09,22,13,52,12.10
2015,09,22,13,53,12.10
2015,09,22,13,54,12.00
2015,09,22,13,55,11.90
2015,09,22,13,56,11.80
2015,09,22,13,57,11.80
2015,09,22,13,58,11.90
2015,09,22,13,59,12.00
2015,09,22,14,00,11.90
2015,09,22,14,01,11.90
2015,09,22,14,02,12.00
2015,09,22,14,03,12.10
2015,09,22,14,04,12.10
2015,09,22,14,05,12.20
2015,09,22,14,06,12.20
2015,09,22,14,07,12.10
2015,09,22,14,08,12.10
2015,09,22,14,09,12.00
2015,09,22,14,10,12.10
2015,09,22,14,11,12.10
2015,09,22,14,12,12.10
2015,09,22,14,13,12.10
2015,09,22,14,14,12.20
2015,09,22,14,15,12.20
2015,09,22,14,16,12.20
2015,09,22,14,17,12.20
2015,09,22,14,18,12.30
2015,09,22,14,19,12.30
2015,09,22,14,20,12.30
2015,09,22,14,21,12.30
2015,09,22,14,22,12.30
2015,09,22,14,23,12.30
2015,09,22,14,24,12.30
2015,09,22,14,25,12.30
2015,09,22,14,26,12.30
2015,09,22,14,27,12.20
2015,09,22,14,28,12.20
2015,09,22,14,29,12.10
2015,09,22,14,30,12.10
2015,09,22,14,31,12.00
2015,09,22,14,32,12.10
2015,09,22,14,33,12.10
2015,09,22,14,34,12.10
2015,09,22,14,35,12.20
2015,09,22,14,36,12.30
2015,09,22,14,37,12.30
2015,09,22,14,38,12.40
2015,09,22,14,39,12.40
2015,09,22,14,40,12.40
2015,09,22,14,41,12.40
2015,09,22,14,42,12.40
2015,09,22,14,43,12.40
2015,09,22,14,44,12.30
2015,09,22,14,45,12.30
2015,09,22,14,46,12.30
2015,09,22,14,47,12.20
2015,09,22,14,48,12.20
2015,09,22,14,49,12.20
2015,09,22,14,50,12.10
2015,09,22,14,51,12.10
2015,09,22,14,52,12.10
2015,09,22,14,53,12.20
2015,09,22,14,54,12.20
2015,09,22,14,55,12.20
2015,09,22,14,56,12.20
2015,09,22,14,57,12.20
2015,09,22,14,58,12.20
2015,09,22,14,59,12.30
2015,09,22,15,00,12.30
2015,09,22,15,01,12.30
2015,09,22,15,02,12.30
2015,09,22,15,03,12.30
2015,09,22,15,04,12.30
2015,09,22,15,05,12.30
2015,09,22,15,06,12.30
2015,09,22,15,07,12.30
2015,09,22,15,08,12.30
2015,09,22,15,09,12.40
2015,09,22,15,10,12.40
2015,09,22,15,11,12.50
2015,09,22,15,12,12.50
2015,09,22,15,13,12.60
2015,09,22,15,14,12.70
2015,09,22,15,15,12.80
2015,09,22,15,16,12.90
2015,09,22,15,17,13.00
2015,09,22,15,18,13.10
2015,09,22,15,19,13.20
2015,09,22,15,20,13.30
2015,09,22,15,21,13.30
2015,09,22,15,22,13.40
2015,09,22,15,23,13.50
2015,09,22,15,24,13.60
2015,09,22,15,25,13.60
2015,09,22,15,26,13.60
2015,09,22,15,27,13.60
2015,09,22,15,28,13.60
2015,09,22,15,29,13.60
2015,09,22,15,30,13.60
2015,09,22,15,31,13.60
2015,09,22,15,32,13.50
2015,09,22,15,33,13.50
2015,09,22,15,34,13.40
2015,09,22,15,35,13.50
2015,09,22,15,36,13.50
2015,09,22,15,37,13.60
2015,09,22,15,38,13.60
2015,09,22,15,39,13.60
2015,09,22,15,40,13.70
2015,09,22,15,41,13.70
2015,09,22,15,42,13.70
2015,09,22,15,43,13.70
2015,09,22,15,44,13.80
2015,09,22,15,45,13.80
2015,09,22,15,46,13.90
2015,09,22,15,47,13.90
2015,09,22,15,48,14.00
2015,09,22,15,49,14.10
2015,09,22,15,50,14.20
2015,09,22,15,51,14.20
2015,09,22,15,52,14.40
2015,09,22,15,53,14.50
2015,09,22,15,54,14.60
2015,09,22,15,55,14.70
2015,09,22,15,56,14.70
2015,09,22,15,57,14.70
2015,09,22,15,58,14.80
2015,09,22,15,59,14.80
2015,09,22,16,00,14.80
2015,09,22,16,01,14.80
2015,09,22,16,02,14.80
2015,09,22,16,03,14.90
2015,09,22,16,04,15.00
2015,09,22,16,05,15.00
2015,09,22,16,06,15.10
2015,09,22,16,07,15.10
2015,09,22,16,08,15.20
2015,09,22,16,09,15.20
2015,09,22,16,10,15.20
2015,09,22,16,11,15.10
2015,09,22,16,12,15.10
2015,09,22,16,13,15.10
2015,09,22,16,14,15.10
2015,09,22,16,15,15.10
2015,09,22,16,16,15.10
2015,09,22,16,17,15.10
2015,09,22,16,18,15.00
2015,09,22,16,19,15.00
2015,09,22,16,20,15.00
2015,09,22,16,21,15.00
2015,09,22,16,22,15.10
2015,09,22,16,23,15.10
2015,09,22,16,24,15.00
2015,09,22,16,25,14.90
2015,09,22,16,26,14.90
2015,09,22,16,27,14.80
2015,09,22,16,28,14.80
2015,09,22,16,29,14.70
2015,09,22,16,30,14.60
2015,09,22,16,31,14.50
2015,09,22,16,32,14.50
2015,09,22,16,33,14.50
2015,09,22,16,34,14.50
2015,09,22,16,35,14.40
2015,09,22,16,36,14.40
2015,09,22,16,37,14.40
2015,09,22,16,38,14.40
2015,09,22,16,39,14.50
2015,09,22,16,40,14.60
2015,09,22,16,41,14.70
2015,09,22,16,42,14.80
2015,09,22,16,43,14.80
2015,09,22,16,44,14.80
2015,09,22,16,45,14.80
2015,09,22,16,46,14.90
2015,09,22,16,47,14.90
2015,09,22,16,48,15.00
2015,09,22,16,49,15.00
2015,09,22,16,50,15.10
2015,09,22,16,51,15.10
2015,09,22,16,52,15.10
2015,09,22,16,53,15.10
2015,09,22,16,54,15.00
2015,09,22,16,55,15.00
2015,09,22,16,56,14.90
2015,09,22,16,57,15.00
2015,09,22,16,58,14.90
2015,09,22,16,59,14.90
2015,09,22,17,00,14.90
2015,09,22,17,01,14.90
2015,09,22,17,02,14.90
2015,09,22,17,03,14.90
2015,09,22,17,04,14.90
2015,09,22,17,05,14.90
2015,09,22,17,06,14.90
2015,09,22,17,07,14.90
2015,09,22,17,08,14.80
2015,09,22,17,09,14.80
2015,09,22,17,10,14.70
2015,09,22,17,11,14.70
2015,09,22,17,12,14.60
2015,09,22,17,13,14.50
2015,09,22,17,14,14.50
2015,09,22,17,15,14.40
2015,09,22,17,16,14.30
2015,09,22,17,17,14.20
2015,09,22,17,18,14.10
2015,09,22,17,19,14.00
2015,09,22,17,20,13.90
2015,09,22,17,21,13.90
2015,09,22,17,22,13.80
2015,09,22,17,23,13.80
2015,09,22,17,24,13.80
2015,09,22,17,25,13.70
2015,09,22,17,26,13.70
2015,09,22,17,27,13.70
2015,09,22,17,28,13.70
2015,09,22,17,29,13.70
2015,09,22,17,30,13.70
2015,09,22,17,31,13.70
2015,09,22,17,32,13.70
2015,09,22,17,33,13.70
2015,09,22,17,34,13.70
2015,09,22,17,35,13.70
2015,09,22,17,36,13.70
2015,09,22,17,37,13.80